Regional Weather Roundup
Issued by NWS Little Rock, AR

Home | Current Version | Previous Version | Graphics & Text | Print | Product List | Glossary On
Versions: 1 2 3 4 5 6 7 8 9 10 11 12 13 14 15 16 17 18 19 20 21 22 23 24 25 26 27 28 29 30 31 32 33 34 35 36 37 38 39 40 41 42 43 44 45 46 47 48 49 50
408
ASUS44 KLZK 270705
RWRLZK

WEATHER ROUNDUP FOR ARKANSAS
NATIONAL WEATHER SERVICE LITTLE ROCK AR
200 AM CDT WED JUL 27 2016

NOTE: "FAIR" INDICATES FEW OR NO CLOUDS BELOW 12,000 FEET WITH NO
SIGNIFICANT WEATHER AND/OR OBSTRUCTIONS TO VISIBILITY.

ARZ001-003-010-029-270800-
NORTHWEST ARKANSAS

CITY           SKY/WX    TMP DP  RH WIND       PRES   REMARKS
FAYETTEVILLE   CLEAR     71  71 100 SE3       29.98S
FORT SMITH     PTCLDY    78  73  84 E3        29.93S
HARRISON       CLEAR     73  72  96 SE3       30.00S
BENTONVILLE    CLEAR     72  68  88 S5        29.99F
ROGERS         CLOUDY    73  71  93 E3        30.00R
SILOAM SPGS    PTCLDY    72  64  78 E3        29.99F
HIGHFILL       PTCLDY    74  72  93 CALM      29.98S
$$

ARZ004-005-016-270800-
NORTH CENTRAL ARKANSAS

CITY           SKY/WX    TMP DP  RH WIND       PRES   REMARKS
BATESVILLE     CLEAR     73  72  94 CALM      29.95F
FLIPPIN        CLOUDY    73  70  88 NE3       29.95S VSB 3/4
MTN HOME       FOG       73  73 100 E3        29.97F VSB 1
$$

ARZ040-041-270800-
WEST CENTRAL ARKANSAS

CITY           SKY/WX    TMP DP  RH WIND       PRES   REMARKS
MENA           PTCLDY    73  73 100 CALM      29.96F
MOUNT IDA      CLEAR     75  74  96 CALM      29.93S
$$

ARZ009-017-025-026-028-270800-
NORTHEAST ARKANSAS

CITY           SKY/WX    TMP DP  RH WIND       PRES   REMARKS
CORNING          N/A     75  75 100 NE6       29.95F
JONESBORO      CLEAR     77  74  90 NE5       29.94F
NEWPORT        PTCLDY    77  77 100 E5        29.95F
WALNUT RIDGE   CLEAR     75  72  88 E7        29.94F
BLYTHEVILLE    CLOUDY    77  74  90 E7        29.95S
$$

ARZ022-023-033-042-044-270800-
CENTRAL ARKANSAS

CITY           SKY/WX    TMP DP  RH WIND       PRES   REMARKS
LITTLE ROCK    PTCLDY    81  74  79 E7        29.93R HX  86
N LITTLE ROCK    N/A     78  72  81 CALM      29.90S
JACKSONVILLE   CLEAR     77  74  88 NE1       29.92F
SEARCY         CLEAR     78  74  87 N3        29.95S
HOT SPRINGS    PTCLDY    78  73  84 CALM      29.93F
RUSSELLVILLE   PTCLDY    75  74  96 CALM      29.94S
$$

ARZ036-270800-
EAST ARKANSAS

CITY           SKY/WX    TMP DP  RH WIND       PRES   REMARKS
WEST MEMPHIS   CLEAR     78  75  90 E3        29.91F
$$

ARZ050-053-066-070-073-270800-
SOUTHWEST ARKANSAS

CITY           SKY/WX    TMP DP  RH WIND       PRES   REMARKS
CAMDEN         CLEAR     73  72  94 CALM      29.92S
TEXARKANA      CLEAR     79  72  79 S7        29.92S
EL DORADO      CLEAR     75  72  90 CALM      29.92F
DE QUEEN       CLOUDY    76  74  93 CALM      29.90S
$$

ARZ056-057-069-270800-
SOUTHEAST ARKANSAS

CITY           SKY/WX    TMP DP  RH WIND       PRES   REMARKS
PINE BLUFF     CLEAR     78  74  87 W5        29.92F
STUTTGART      CLEAR     79  70  73 CALM      29.93S
MONTICELLO     CLEAR     79  73  82 SW3       29.92F

$$






USA.gov is the U.S. government's official web portal to all federal, state and local government web resources and services.